Back to catalog

STARLINK-4139

AliveCommunicationsVLEO
NORAD 52879·PAYLOAD·🇺🇸 United States

Launched Jun 17, 2022 from Cape Canaveral Space Force Station

Loading…

Next Passes (next 24 hours)

TLE

FreshSource: CelesTrak SupGP

Epoch: Sep 14, 2026, 20:49 UTC

1 52879C 22062BB  26257.86784722  .00040749  00000+0  12039-2 0  2576
2 52879  53.1579 229.7923 0001740  85.7895 331.0338 15.34369657    12

Track STARLINK-4139 in real time with AllMySat

Download on the App Store